Miscellaneous Local Product
Issued by NWS Hastings, NE

Home | Current Version | Previous Version | Text Only | Print | Product List | Glossary Off
Versions: 1 2 3 4 5 6 7 8 9 10 11 12 13 14 15 16 17 18 19 20 21 22 23 24 25 26 27 28 29 30 31 32 33 34 35 36 37 38 39 40 41 42 43 44 45 46 47 48 49 50

000
AXUS43 KGID 010002
MISGRI

GID CWA HOURLY WEATHER ROUNDUP
NATIONAL WEATHER SERVICE HASTINGS NE
700 PM CDT TUE MAR 31 2015

NOTE: "FAIR" INDICATES FEW OR NO CLOUDS BELOW 12,000 FEET WITH NO
SIGNIFICANT WEATHER AND/OR OBSTRUCTIONS TO VISIBILITY.

...SOUTH CENTRAL NEBRASKA...

CITY           SKY/WX    TMP DP  RH WIND       PRES   REMARKS
GRAND ISLAND   CLEAR     76  27  16 S13       29.85S
HASTINGS       CLEAR     76  28  17 S12       29.86S
KEARNEY        SUNNY     75  27  16 E16       29.85S
ORD            MOSUNNY   76  25  15 S13       29.80F
YORK           CLEAR     77  30  18 S13       29.86S
AURORA         CLEAR     76  30  18 S10       29.86S
LEXINGTON      SUNNY     78  25  14 S14G21    29.83F
HOLDREGE       SUNNY     77  25  14 S12G20    29.85F
HEBRON         CLEAR     77  22  12 S8        29.87F

...NEBRASKA PANHANDLE...

CITY           SKY/WX    TMP DP  RH WIND       PRES   REMARKS
CHADRON        SUNNY     77  23  13 W9        29.71F
ALLIANCE       SUNNY     77  32  19 SW9       29.77F
SCOTTSBLUFF    SUNNY     76  21  12 S9        29.75F
SIDNEY         SUNNY     75  23  14 SW10      29.83S

...WESTERN AND NORTH CENTRAL NEBRASKA...

CITY           SKY/WX    TMP DP  RH WIND       PRES   REMARKS
VALENTINE      MOSUNNY   77  19  11 SW13      29.74F
AINSWORTH      PTSUNNY   77  23  13 S12       29.77F
ONEILL         SUNNY     76  29  17 SW12      29.80F
BROKEN BOW     SUNNY     77  28  16 S17G28    29.81F
IMPERIAL         N/A     79  17  10 S7        29.81F
NORTH PLATTE   SUNNY     78  20  11 S6        29.79F
MCCOOK         SUNNY     81  22  11 S16       29.80F

...EASTERN NEBRASKA...

CITY           SKY/WX    TMP DP  RH WIND       PRES   REMARKS
NORFOLK        CLEAR     75  31  19 S10       29.82F
SO SIOUX CITY  CLEAR     75  30  19 SW8       29.83F
TEKAMAH        CLEAR     77  28  16 S14       29.85F
COLUMBUS       CLEAR     75  30  19 S10       29.86F
ALBION         PTCLDY    76  25  14 S10       29.83F
OMAHA EPPLEY   CLEAR     75  30  19 S6        29.87F
OFFUTT AFB     CLEAR     74  32  21 SE7       29.87F
MILLARD        CLEAR     76  32  20 SE6       29.87F
LINCOLN        CLEAR     73  34  23 S9        29.87F
NEBRASKA CITY  CLEAR     72  26  17 S6        29.89S
BEATRICE       CLEAR     74  34  23 S7        29.88S
FALLS CITY     CLEAR     73  29  19 SE6       29.89S

...NORTHERN KANSAS...

CITY           SKY/WX    TMP DP  RH WIND       PRES   REMARKS
GOODLAND       SUNNY     78  16   9 SW14      29.85F
HILL CITY      SUNNY     80  26  13 S15       29.84F
NORTON         CLEAR     79  14   8 SE9       29.82F
PHILLIPSBURG   SUNNY     82  25  12 S8        29.84F
SMITH CENTER   SUNNY     75  30  19 SE13      29.86F
BELOIT         CLEAR     77  28  16 SE9       29.86S
HAYS           SUNNY     79  30  17 S10       29.87S
RUSSELL        SUNNY     78  31  17 SE14      29.86S
CONCORDIA      CLEAR     76  31  19 SE10      29.88S
SALINA         CLEAR     78  33  19 SE12      29.88S
TOPEKA         CLEAR     73  34  23 SE9       29.91R



USA.gov is the U.S. government's official web portal to all federal, state and local government web resources and services.